Lid_Strength_Index
3 7 6 8 11 11 13 11 10 9 9 7 6 7 8 8 9 12 2 1 1 -0 -1 -1 -2 -2 -1 -1 -2 -2 -2 -2 -2 -2 -2 -2 -2 -2 -2 -2 -3 -3 -2 -2 -2 -2 -2 -2 -2
6 6 7 10 13 15 13 10 10 9 7 6 5 6 8 9 5 4 3 1 0 -0 -0 -1 -1 -2 -2 -2 -2 -2 -2 -2 -3 -2 -2 -2 -2 -2 -2 -2 -3 -2 -2 -2 -2 -2 -2 -2 -2
6 7 10 11 14 15 13 10 9 7 6 7 8 5 7 8 4 3 2 1 -0 0 -0 -1 -1 -2 -2 -2 -2 -2 -2 -2 -3 -3 -2 -2 -2 -2 -2 -2 -2 -2 -2 -2 -2 -2 -2 -2 -2
8 8 10 13 15 13 12 9 8 8 6 6 6 8 6 3 3 3 1 1 0 -0 -0 -1 -1 -2 -2 -2 -2 -2 -2 -2 -3 -3 -3 -2 -2 -2 -3 -2 -3 -2 -2 -2 -2 -2 -2 -2 -2
8 10 13 14 13 13 11 8 7 8 7 8 6 9 7 4 3 2 1 1 0 0 -0 -1 -2 -2 -2 -2 -2 -2 -2 -2 -2 -2 -2 -2 -2 -2 -2 -2 -2 -2 -2 -2 -2 -2 -2 -2 -2
10 10 14 15 14 13 11 8 7 7 7 7 7 8 7 3 3 2 1 2 0 0 -0 -1 -0 -1 -1 -2 -2 -2 -2 -2 -2 -2 -2 -2 -2 -2 -2 -2 -2 -2 -2 -2 -2 -2 -2 -2 -2
11 11 14 14 13 13 12 9 9 7 7 8 5 9 6 4 2 2 1 2 1 0 0 -0 -0 -0 -0 -1 -1 -2 -2 -2 -2 -2 -2 -2 -2 -2 -2 -2 -2 -2 -2 -2 -2 -2 -2 -2 -2
10 10 13 13 13 12 10 8 8 7 8 5 5 9 9 4 2 2 1 2 2 0 0 0 0 -0 -0 0 0 -0 -1 -1 -1 -1 -1 -1 -1 -1 -1 -1 -2 -2 -2 -2 -2 -1 -1 -1 -1
8 13 13 12 12 10 9 9 8 7 7 6 5 6 4 2 2 3 2 2 2 1 0 0 0 0 -0 0 1 1 1 0 -0 -0 -0 0 -0 -0 -0 -1 -1 -2 -2 -2 -2 -1 -1 -1 -0
11 12 12 9 10 11 9 9 8 7 8 8 7 4 3 2 3 3 4 3 2 2 2 1 0 0 -0 -1 0 0 0 0 -0 -0 0 0 0 0 -0 0 -1 -1 -1 -2 -1 -1 -1 0 2
11 12 9 9 11 10 10 11 9 8 9 7 7 6 4 4 4 4 4 3 3 2 1 1 1 0 0 -0 0 -0 0 1 0 0 1 1 1 1 1 1 1 1 1 1 1 1 1 2 2
13 10 10 9 11 11 12 11 9 10 10 6 4 4 4 4 4 4 4 3 3 2 2 1 1 1 1 0 -0 0 -0 0 1 0 1 1 2 2 1 1 1 2 2 1 2 1 1 1 1
11 10 11 10 11 12 11 12 11 10 8 7 4 4 5 4 4 4 3 3 2 2 1 2 1 1 1 1 0 1 0 1 1 1 1 1 1 1 2 2 2 1 1 2 2 2 1 1 1
9 9 9 11 12 12 12 13 12 11 10 8 5 5 5 4 4 4 3 3 2 2 2 1 2 1 1 1 1 1 1 1 1 1 1 1 1 1 2 2 2 2 2 1 2 2 2 2 1
8 10 10 12 12 13 12 14 13 11 11 11 7 5 5 4 3 4 3 3 2 2 1 1 1 1 1 1 1 1 1 1 1 1 1 1 1 1 1 2 2 2 1 1 2 2 2 2 2
11 11 13 12 12 12 12 13 10 11 12 12 11 8 5 4 4 3 2 2 3 2 2 1 0 1 1 1 1 1 1 1 1 1 1 1 1 1 1 1 1 1 2 2 2 2 2 3 3
13 15 14 12 11 13 14 14 10 9 12 12 13 11 9 5 4 3 2 2 3 2 2 1 1 1 1 1 0 1 2 2 1 1 1 1 1 1 1 1 1 1 2 2 2 3 3 3 3
15 14 13 13 12 13 15 15 11 10 12 12 13 13 11 8 4 3 2 2 2 2 2 1 1 1 1 0 1 1 2 2 1 1 1 1 1 1 1 1 2 2 2 2 3 3 2 2 2
11 13 13 11 10 13 13 13 12 11 11 13 13 13 13 10 5 4 3 3 2 2 2 2 2 1 1 1 2 2 2 1 2 1 1 1 1 1 1 1 2 2 2 2 3 3 2 2 3
12 13 13 11 11 12 14 13 11 11 10 11 11 12 12 12 9 5 4 3 3 2 2 2 2 2 2 1 1 1 1 2 1 1 1 1 1 2 2 2 2 2 3 3 3 3 4 3 2
12 14 13 13 14 15 16 15 15 12 11 11 10 10 10 11 11 7 6 4 3 3 2 2 2 2 2 1 1 2 2 3 3 2 1 1 1 1 2 2 2 2 2 3 3 3 3 4 3
15 10 11 13 15 17 15 19 16 13 12 11 10 9 10 10 11 9 6 5 4 3 2 2 1 1 1 1 1 2 2 3 2 2 1 0 1 1 1 2 2 2 2 3 3 2 2 2 3
13 10 11 13 15 17 17 20 17 15 13 12 10 10 10 10 10 10 7 5 4 3 3 2 2 1 1 1 1 2 2 1 2 2 2 1 1 1 1 2 2 2 2 2 2 3 3 2 4
9 11 13 13 15 19 16 18 18 15 13 13 12 11 10 9 10 10 9 5 4 2 3 2 2 2 1 1 2 2 2 2 2 2 2 1 1 1 1 2 2 2 2 2 2 2 3 3 3
11 14 19 20 20 20 16 17 15 13 11 12 12 12 12 11 10 10 11 7 4 4 3 3 3 2 2 2 2 2 2 2 2 2 2 2 2 1 2 2 2 2 2 2 2 3 3 3 3
13 14 18 22 22 21 19 19 16 11 8 8 11 13 13 12 11 11 11 10 6 5 3 3 3 2 2 2 2 2 2 2 2 2 1 1 1 1 1 2 2 2 2 2 3 3 3 3 3
13 16 12 18 24 22 19 17 14 12 12 12 13 12 13 12 12 12 10 11 10 7 4 3 3 3 3 3 2 2 1 2 2 2 1 1 1 1 1 1 2 2 2 2 3 3 3 3 3
11 11 15 16 23 24 21 20 17 14 12 12 13 13 12 12 12 12 12 11 11 10 9 8 5 4 5 4 3 2 2 2 1 3 3 2 2 3 3 2 2 3 3 3 3 3 5 4 4
14 13 13 13 17 21 23 20 15 13 12 13 13 12 12 12 12 12 12 12 11 11 11 10 10 10 9 9 7 5 4 4 3 3 3 4 4 2 2 2 2 2 3 3 3 3 4 5 5
11 13 12 15 18 19 18 19 13 14 13 12 13 13 13 13 12 12 12 11 11 11 10 10 10 11 10 10 9 7 5 5 5 5 5 4 3 3 3 3 3 3 3 2 3 4 5 5 6